リー彗星

292P/Li (2014)

English version
Home page
Updated on June 11, 2016

---------------------------------------------------------------------

・ プロフィール

符号 292P/2013 O1
検出日 2013年7月24日
検出光度 18.6等
検出者 R. H. McNaught (Siding Spring)

・ 写真集

・ 軌道要素

Epoch 2014 Jan. 23.0 TT = JDT 2456680.5
T 2014 Feb. 4.83137 TT                                  MPCW
q   2.5223629            (2000.0)            P               Q
n   0.06508397     Peri.  319.05881     +0.57207684     -0.70909049
a   6.1209671      Node    91.86352     +0.81799669     +0.45643775
e   0.5879143      Incl.   24.35759     +0.06007911     +0.53745256
P  15.1
From 470 observations 1998 Sept. 23-2015 Feb. 20, mean residual 0".6.

・ 星図

・ 光度変化

        m1 =  2.5 + 5 logΔ + 30.0 log r  [ ,0]  (              〜2014年 2月 4日)
        m1 = 10.5 + 5 logΔ + 10.0 log r  [0, ]  (2014年 2月 4日〜              )

---------------------------------------------------------------------

軌道要素はM.P.E.C. 2015-G03に掲載されたものです。
星図はステラナビゲータ Ver.8 (アストロアーツ) で作成したものです。
光度グラフはComet for Windowsで作成したものです。

---------------------------------------------------------------------

Copyright(C) Seiichi Yoshida (comet@aerith.net). All rights reserved.